LiveATC.Net - Listen to live air traffic control over the Internet!


ICAO: KCCR  IATA: CCR   Airport: Buchanan Field Airport
City: Concord   State/Province: California
Country: United States   Continent: North America
KCCR METAR Weather: KCCR 011653Z 04009G17KT 10SM CLR 24/04 A2984 RMK AO2 SLP092 T02390044
KCCR Flight Activity (FlightAware)
KCCR Airport Info   (AirNav) (iFlightPlanner)
KCCR VFR Sectional Chart   (iFlightPlanner) 
KCCR IFR Low Chart   (iFlightPlanner) 
KCCR Tower
Feed Status: UP   Listeners: 0
Listen right in your browser - requires Flash (in browser, requires Flash)
Click here to listen with your own player (launches your MP3 player)
KCCR Tower Audio Archives
FacilityFrequency
Concord Tower119.700


NOTICE

Unauthorized use prohibited. See LiveATC.net Terms of Service


Find LiveATC Audio Streams


Airport/ARTCC Code

Frequency
(e.g., 124.400, 128.75)
Site-wide search

Browse LiveATC Feeds
LiveATC Coverage Map
Top 50 LiveATC Feeds
Bad Weather Areas

LiveATC FAQ
Offer a LiveATC Feed
Contact LiveATC.net
Press Inquiries

LiveATC on iPhone
LiveATC on Android

Windows Phone
Windows 8/10

LiveATC Mobile
(Mobile browser)

ATC Audio Archives
Interesting Recordings

LiveATC Forums


Home Page
About LiveATC.net
Make a Donation
LiveATC Store

Terms of Use
Privacy Policy

Canadian Air Freqs

AIRMETs/SIGMETs

FAA Airport Status
Nat'l Airspace Status
Arrival Demand Charts


Server Software By:
Icecast.org
Liquidsoap